Volver al catálogo

KUIPER-00320

ActivoComunicacionesLEO
NORAD 68601·PAYLOAD·🇺🇸 United States

Lanzado Apr 4, 2026 desde Cape Canaveral Space Force Station

Loading…

Próximos Pases (próximas 24 horas)

TLE

ActualizadoSource: CelesTrak SupGP

Época: Sep 14, 2026, 23:28 UTC

1 68601C 26072AE  26257.97787037  .00003057  00000+0  40022-3 0  2570
2 68601  51.9008 143.6165 0000859  98.1707 207.6142 14.79928682    15

Sigue KUIPER-00320 en tiempo real con AllMySat

Download on the App Store